Flag for U.S.A. Weather past 2 weeks in Daly City, California, U.S.A.

Now
60 °F

Mostly cloudy.


Feels Like: 60 °F
Forecast: 55 / 66 °F
Wind: 21 mph from West

Location: San Francisco International Airport

Current Time: Jun 3, 2015 at 5:02:07 PM

Latest Report: Jun 3, 2015 at 3:56 PM


Visibility: 10 mi

Pressure: 29.93 "Hg

Humidity: 69%

Dew point: 50 °F

Location of Daly CityLocation

Historic Weather in Daly City — Graph

°F

Daly City temperature yesterday

Maximum temperature yesterday: 65 °F (at 2:56 PM)
Minimum temperature yesterday: 57 °F (at 2:56 AM)
Average temperature yesterday: 60 °F

Past Weeks' High & Low Weather Summary

 TemperatureHumidityPressure
High72 °F (Jun 1, 2:56 PM)90% (May 21, 6:56 AM)30.11 "Hg (May 21, 6:56 AM)
Low52 °F (May 24, 4:56 AM)46% (Jun 1, 2:56 PM)29.90 "Hg (May 30, 5:56 PM)
Average58 °F75%30.00 "Hg
* Reported May 19 3:56 PM — Jun 3 3:56 PM, Daly City, Weather by CustomWeather, © 2015

Note: Actual official high and low records may vary slightly from our data, if they occured in-between our weather recording intervals... More about our weather records

Advertising

Daly City weather history for previous 24 hours

 ConditionsComfort  
Time TempWeatherWind HumidityBarometerVisibility
3:56 PM
Wed, Jun 3
60 °FMostly cloudy.21 mph69%29.93 "Hg10 mi
2:56 PM61 °FBroken clouds.20 mph67%29.95 "Hg10 mi
1:56 PM65 °FBroken clouds.24 mph59%29.96 "Hg10 mi
12:56 PM63 °FBroken clouds.20 mph63%29.96 "Hg10 mi
11:56 AM63 °FPartly sunny.16 mph63%29.96 "Hg10 mi
10:56 AM61 °FPartly sunny.17 mph67%29.96 "Hg10 mi
9:56 AM60 °FScattered clouds.18 mph69%29.96 "Hg10 mi
8:56 AM59 °FScattered clouds.16 mph72%29.97 "Hg10 mi
7:56 AM56 °FScattered clouds.18 mph77%29.96 "Hg10 mi
6:56 AM57 °FPassing clouds.13 mph74%29.95 "Hg10 mi
5:56 AM55 °FPassing clouds.14 mph80%29.95 "Hg10 mi
4:56 AM55 °FPassing clouds.9 mph83%29.94 "Hg10 mi
3:56 AM56 °FPassing clouds.10 mph81%29.94 "Hg10 mi
2:56 AM56 °FPassing clouds.13 mph81%29.95 "Hg10 mi
1:56 AM56 °FPassing clouds.20 mph84%29.96 "Hg10 mi
12:56 AM56 °FPassing clouds.17 mph84%29.97 "Hg10 mi
11:56 PM
Tue, Jun 2
57 °FPartly cloudy.21 mph78%29.98 "Hg10 mi
10:56 PM57 °FPartly cloudy.26 mph81%29.98 "Hg10 mi
9:56 PM57 °FPartly cloudy.18 mph78%29.98 "Hg10 mi
8:56 PM58 °FBroken clouds.8 mph75%29.98 "Hg10 mi
7:56 PM59 °FPartly sunny.13 mph72%29.98 "Hg10 mi
6:56 PM60 °FScattered clouds.14 mph72%29.98 "Hg10 mi
5:56 PM62 °FScattered clouds.21 mph65%29.98 "Hg10 mi
Weather by CustomWeather, © 2015

See weather overviewHow to use our weather pages